"Pseudo-MPEC" for CCXFJ72

Created 2025 Feb 7 4:31:10 UT using Find_Orb

Click here for an explanation of pseudo-MPECs

 
 Astrometry: 
     CCXFJ72*1C2025 02 04.39759709 55 25.960+07 09 34.10   ~24Al 16.11GVNEOCPG96
     CCXFJ72 1C2025 02 04.39772409 55 27.830+07 09 41.30   ~24Al 16.13GVNEOCPG96
     CCXFJ72 1C2025 02 04.39785109 55 29.700+07 09 48.40   ~24Al 16.18GVNEOCPG96

Station data:
(G96) Mt. Lemmon Survey  (N32.442729 W110.788720)  US/Arizona.  Observer E.
   J. Christensen.  + 10K CCD.

Orbital elements:  CCXFJ72
   Perihelion 2025 Mar 24.33224 +/- 37.1 TT =  7:58:25 (JD 2460758.83224)
Epoch 2025 Feb  4.0 TT = JDT 2460710.5   Earth MOID: 0.0005   Ve: 0.0440
M 336.68690070 +/- 29               Ma: 0.0173                   AutoNEOCP
n   0.48235089 +/- 0.356            Peri.   77.10220 +/- 52
a   1.61025252 +/- 0.791            Node   135.61985 +/- 50
e   0.5570983 +/- 0.246             Incl.    8.11717 +/- 3.7
P   2.043/746.331d         H 28.42  G  0.15   U 12.0  SR
q 0.71318350 +/- 0.19    Q 2.50732155 +/- 35.5            (J2000 ecliptic)
From 3 observations 2025 Feb. 4 (21.9 sec); mean residual 0".02
Residuals in arcseconds: 
250204 G96  .00   .02-    250204 G96  .01+  .04+    250204 G96  .00   .02-    

Ephemerides (geocentric):
Date (UTC) HH   RA             Dec           delta  r     elong  mag " sig PA
---- --------  ------------   ------------  ------ ------ -----  --- --------
2025 02 07 05  20 31 58.828   -01 44 05.93  .02386 .96370  18.5 31??  65d  83
2025 02 07 06  20 32 07.776   -01 44 46.45  .02425 .96333  18.5 31??  65d  83
2025 02 07 07  20 32 16.442   -01 45 25.77  .02464 .96297  18.5 31??  65d  83
2025 02 07 08  20 32 24.841   -01 46 03.94  .02503 .96260  18.5 31??  65d  83
2025 02 07 09  20 32 32.984   -01 46 41.01  .02543 .96224  18.5 31??  65d  83
2025 02 07 10  20 32 40.883   -01 47 17.05  .02582 .96187  18.5 31??  65d  83
2025 02 07 11  20 32 48.548   -01 47 52.08  .02621 .96150  18.5 31??  65d  83
2025 02 07 12  20 32 55.992   -01 48 26.17  .02660 .96114  18.4 31??  65d  83
2025 02 07 13  20 33 03.222   -01 48 59.35  .02700 .96077  18.4 31??  65d  83
2025 02 07 14  20 33 10.249   -01 49 31.67  .02739 .96041  18.4 31??  65d  83
2025 02 07 15  20 33 17.081   -01 50 03.15  .02778 .96004  18.4 31??  65d  83
2025 02 07 16  20 33 23.726   -01 50 33.85  .02817 .95967  18.4 31??  65d  83
2025 02 07 17  20 33 30.193   -01 51 03.78  .02857 .95931  18.4 32??  65d  83
2025 02 07 18  20 33 36.487   -01 51 32.98  .02896 .95894  18.4 32??  65d  83
2025 02 07 19  20 33 42.617   -01 52 01.49  .02935 .95858  18.4 32??  65d  83
2025 02 07 20  20 33 48.589   -01 52 29.33  .02974 .95821  18.4 32??  65d  83
2025 02 07 21  20 33 54.410   -01 52 56.52  .03014 .95785  18.4 32??  65d  83
2025 02 07 22  20 34 00.084   -01 53 23.10  .03053 .95748  18.4 32??  65d  83
2025 02 07 23  20 34 05.618   -01 53 49.09  .03092 .95712  18.4 32??  65d  83
2025 02 08 00  20 34 11.017   -01 54 14.51  .03132 .95675  18.4 32??  65d  83
2025 02 08 01  20 34 16.287   -01 54 39.38  .03171 .95639  18.4 32??  65d  83
2025 02 08 02  20 34 21.431   -01 55 03.72  .03210 .95602  18.4 32??  65d  83
2025 02 08 03  20 34 26.455   -01 55 27.56  .03250 .95566  18.4 32??  65d  83
2025 02 08 04  20 34 31.364   -01 55 50.91  .03289 .95529  18.4 32??  65d  83
2025 02 08 05  20 34 36.160   -01 56 13.80  .03328 .95493  18.4 32??  65d  83
2025 02 08 06  20 34 40.848   -01 56 36.23  .03367 .95457  18.4 32??  65d  83
2025 02 08 07  20 34 45.433   -01 56 58.22  .03407 .95420  18.4 32??  65d  83
2025 02 08 08  20 34 49.916   -01 57 19.80  .03446 .95384  18.4 32??  65d  83
2025 02 08 09  20 34 54.303   -01 57 40.97  .03485 .95347  18.4 32??  65d  83
2025 02 08 10  20 34 58.597   -01 58 01.76  .03525 .95311  18.4 32??  65d  83
2025 02 08 11  20 35 02.800   -01 58 22.16  .03564 .95274  18.4 32??  65d  83
2025 02 08 12  20 35 06.915   -01 58 42.20  .03603 .95238  18.4 32??  65d  83
2025 02 08 13  20 35 10.946   -01 59 01.89  .03643 .95202  18.4 32??  65d  83
2025 02 08 14  20 35 14.895   -01 59 21.24  .03682 .95165  18.4 32??  65d  83
2025 02 08 15  20 35 18.765   -01 59 40.27  .03721 .95129  18.4 32??  65d  83
2025 02 08 16  20 35 22.558   -01 59 58.98  .03761 .95093  18.4 32??  65d  83
2025 02 08 17  20 35 26.278   -02 00 17.38  .03800 .95056  18.4 32??  65d  83
2025 02 08 18  20 35 29.925   -02 00 35.48  .03839 .95020  18.4 32??  65d  83
2025 02 08 19  20 35 33.503   -02 00 53.30  .03879 .94983  18.5 32??  65d  83
2025 02 08 20  20 35 37.014   -02 01 10.84  .03918 .94947  18.5 32??  65d  83
2025 02 08 21  20 35 40.459   -02 01 28.12  .03958 .94911  18.5 32??  65d  83
2025 02 08 22  20 35 43.841   -02 01 45.13  .03997 .94875  18.5 32??  65d  83
2025 02 08 23  20 35 47.162   -02 02 01.90  .04036 .94838  18.5 32??  65d  83
2025 02 09 00  20 35 50.423   -02 02 18.41  .04076 .94802  18.5 32??  65d  83
2025 02 09 01  20 35 53.626   -02 02 34.70  .04115 .94766  18.5 32??  65d  83
2025 02 09 02  20 35 56.774   -02 02 50.75  .04154 .94729  18.5 32??  65d  83
2025 02 09 03  20 35 59.867   -02 03 06.59  .04194 .94693  18.5 32??  65d  83
2025 02 09 04  20 36 02.907   -02 03 22.21  .04233 .94657  18.5 32??  65d  83